Time,TemperatureF,DewpointF,PressureIn,WindDirection,WindDirectionDegrees,WindSpeedMPH,WindSpeedGustMPH,Humidity,HourlyPrecipIn,Conditions,Clouds,dailyrainin,SoftwareType,DateUTC
2013-06-19 00:14:00,48.9,38.8,30.09,SSW,202,0.0,-999.0,68,-99.99,,,0.00,Acu-Link.com,2013-06-19 04:14:00,
2013-06-19 00:29:00,48.6,38.5,30.09,SW,225,0.0,-999.0,68,-99.99,,,0.00,Acu-Link.com,2013-06-19 04:29:00,
2013-06-19 00:44:00,48.2,39.2,30.09,WSW,247,0.0,-999.0,71,-99.99,,,0.00,Acu-Link.com,2013-06-19 04:44:00,
2013-06-19 01:00:00,47.3,39.1,30.09,North,0,0.0,-999.0,73,-99.99,,,0.00,Acu-Link.com,2013-06-19 05:00:00,
2013-06-19 01:15:00,46.9,38.7,30.09,North,0,0.0,-999.0,73,-99.99,,,0.00,Acu-Link.com,2013-06-19 05:15:00,
2013-06-19 01:30:00,46.4,38.9,30.10,North,0,0.0,-999.0,75,-99.99,,,0.00,Acu-Link.com,2013-06-19 05:30:00,
2013-06-19 01:45:00,45.3,39.2,30.10,North,0,0.0,-999.0,79,-99.99,,,0.00,Acu-Link.com,2013-06-19 05:45:00,
2013-06-19 02:00:00,45.0,39.5,30.10,North,0,0.0,-999.0,81,-99.99,,,0.00,Acu-Link.com,2013-06-19 06:00:00,
2013-06-19 02:16:00,45.0,39.8,30.10,North,0,0.0,-999.0,82,-99.99,,,0.00,Acu-Link.com,2013-06-19 06:16:00,
2013-06-19 02:31:00,44.8,39.0,30.11,North,0,0.0,-999.0,80,-99.99,,,0.00,Acu-Link.com,2013-06-19 06:31:00,
2013-06-19 02:46:00,44.8,38.0,30.11,North,0,0.0,-999.0,77,-99.99,,,0.00,Acu-Link.com,2013-06-19 06:46:00,
2013-06-19 03:01:00,44.6,38.5,30.12,North,0,0.0,-999.0,79,-99.99,,,0.00,Acu-Link.com,2013-06-19 07:01:00,
2013-06-19 03:17:00,43.5,38.4,30.12,North,0,0.0,-999.0,82,-99.99,,,0.00,Acu-Link.com,2013-06-19 07:17:00,
2013-06-19 03:32:00,43.2,38.0,30.12,North,0,0.0,-999.0,82,-99.99,,,0.00,Acu-Link.com,2013-06-19 07:32:00,
2013-06-19 03:47:00,42.6,38.4,30.12,North,0,0.0,-999.0,85,-99.99,,,0.00,Acu-Link.com,2013-06-19 07:47:00,
2013-06-19 04:02:00,41.9,39.2,30.13,North,0,0.0,-999.0,90,-99.99,,,0.00,Acu-Link.com,2013-06-19 08:02:00,
2013-06-19 04:17:00,41.5,41.0,30.13,North,0,0.0,-999.0,98,-99.99,,,0.00,Acu-Link.com,2013-06-19 08:17:00,
2013-06-19 04:33:00,41.2,40.7,30.13,North,0,0.0,-999.0,98,-99.99,,,0.00,Acu-Link.com,2013-06-19 08:33:00,
2013-06-19 04:48:00,41.0,40.5,30.13,North,0,0.0,-999.0,98,-99.99,,,0.00,Acu-Link.com,2013-06-19 08:48:00,
2013-06-19 05:03:00,40.8,40.3,30.13,North,0,0.0,-999.0,98,-99.99,,,0.00,Acu-Link.com,2013-06-19 09:03:00,
2013-06-19 05:18:00,40.5,39.9,30.13,North,0,0.0,-999.0,98,-99.99,,,0.00,Acu-Link.com,2013-06-19 09:18:00,
2013-06-19 05:33:00,40.1,39.6,30.14,North,0,0.0,-999.0,98,-99.99,,,0.00,Acu-Link.com,2013-06-19 09:33:00,
2013-06-19 05:48:00,40.5,39.9,30.14,North,0,0.0,-999.0,98,-99.99,,,0.00,Acu-Link.com,2013-06-19 09:48:00,
2013-06-19 06:04:00,41.0,40.5,30.15,North,0,0.0,-999.0,98,-99.99,,,0.00,Acu-Link.com,2013-06-19 10:04:00,
2013-06-19 06:19:00,41.5,41.0,30.15,North,0,0.0,-999.0,98,-99.99,,,0.00,Acu-Link.com,2013-06-19 10:19:00,
2013-06-19 06:34:00,42.1,41.6,30.16,North,0,0.0,-999.0,98,-99.99,,,0.00,Acu-Link.com,2013-06-19 10:34:00,
2013-06-19 06:49:00,42.8,42.3,30.16,North,0,0.0,-999.0,98,-99.99,,,0.00,Acu-Link.com,2013-06-19 10:49:00,
2013-06-19 07:05:00,44.4,43.9,30.17,North,0,0.0,-999.0,98,-99.99,,,0.00,Acu-Link.com,2013-06-19 11:05:00,
2013-06-19 07:20:00,46.6,42.9,30.17,North,0,2.7,-999.0,87,-99.99,,,0.00,Acu-Link.com,2013-06-19 11:20:00,
2013-06-19 07:35:00,48.0,44.9,30.17,North,0,0.0,-999.0,89,-99.99,,,0.00,Acu-Link.com,2013-06-19 11:35:00,
2013-06-19 07:50:00,48.9,42.0,30.17,East,90,0.0,-999.0,77,-99.99,,,0.00,Acu-Link.com,2013-06-19 11:50:00,
2013-06-19 08:06:00,50.4,42.0,30.18,SE,135,0.0,-999.0,73,-99.99,,,0.00,Acu-Link.com,2013-06-19 12:06:00,
2013-06-19 08:21:00,51.4,42.4,30.18,ESE,112,0.0,-999.0,71,-99.99,,,0.00,Acu-Link.com,2013-06-19 12:21:00,
2013-06-19 08:36:00,52.5,42.3,30.18,SE,135,1.1,-999.0,68,-99.99,,,0.00,Acu-Link.com,2013-06-19 12:36:00,
2013-06-19 08:51:00,53.8,41.9,30.19,North,0,0.0,-999.0,64,-99.99,,,0.00,Acu-Link.com,2013-06-19 12:51:00,
2013-06-19 09:06:00,55.0,42.7,30.19,SSE,157,2.7,-999.0,63,-99.99,,,0.00,Acu-Link.com,2013-06-19 13:06:00,
2013-06-19 09:22:00,55.6,42.3,30.19,ESE,112,0.0,-999.0,61,-99.99,,,0.00,Acu-Link.com,2013-06-19 13:22:00,
2013-06-19 09:37:00,56.7,42.1,30.19,ESE,112,2.7,-999.0,58,-99.99,,,0.00,Acu-Link.com,2013-06-19 13:37:00,
2013-06-19 09:52:00,57.2,41.6,30.19,ENE,67,0.0,-999.0,56,-99.99,,,0.00,Acu-Link.com,2013-06-19 13:52:00,
2013-06-19 10:07:00,58.1,41.5,30.19,North,0,0.0,-999.0,54,-99.99,,,0.00,Acu-Link.com,2013-06-19 14:07:00,
2013-06-19 10:23:00,59.5,41.9,30.19,SSW,202,0.0,-999.0,52,-99.99,,,0.00,Acu-Link.com,2013-06-19 14:23:00,
2013-06-19 10:38:00,61.3,43.1,30.18,ESE,112,3.8,-999.0,51,-99.99,,,0.00,Acu-Link.com,2013-06-19 14:38:00,
2013-06-19 10:53:00,61.5,41.1,30.18,NE,45,0.0,-999.0,47,-99.99,,,0.00,Acu-Link.com,2013-06-19 14:53:00,
2013-06-19 11:08:00,62.1,42.1,30.18,East,90,0.0,-999.0,48,-99.99,,,0.00,Acu-Link.com,2013-06-19 15:08:00,
2013-06-19 11:24:00,62.2,41.2,30.19,ESE,112,0.0,-999.0,46,-99.99,,,0.00,Acu-Link.com,2013-06-19 15:24:00,
2013-06-19 11:39:00,61.9,42.0,30.19,ESE,112,0.0,-999.0,48,-99.99,,,0.00,Acu-Link.com,2013-06-19 15:39:00,
2013-06-19 11:54:00,61.7,41.8,30.18,ESE,112,2.2,-999.0,48,-99.99,,,0.00,Acu-Link.com,2013-06-19 15:54:00,
2013-06-19 12:09:00,62.1,43.2,30.18,North,0,0.0,-999.0,50,-99.99,,,0.00,Acu-Link.com,2013-06-19 16:09:00,
2013-06-19 12:25:00,61.7,42.9,30.18,SE,135,0.0,-999.0,50,-99.99,,,0.00,Acu-Link.com,2013-06-19 16:25:00,
2013-06-19 12:40:00,63.9,42.7,30.17,ESE,112,0.0,-999.0,46,-99.99,,,0.00,Acu-Link.com,2013-06-19 16:40:00,
2013-06-19 12:55:00,64.8,40.5,30.17,SW,225,2.2,-999.0,41,-99.99,,,0.00,Acu-Link.com,2013-06-19 16:55:00,
2013-06-19 13:10:00,66.6,42.1,30.17,ESE,112,0.0,-999.0,41,-99.99,,,0.00,Acu-Link.com,2013-06-19 17:10:00,
2013-06-19 13:26:00,64.6,42.2,30.17,ENE,67,0.0,-999.0,44,-99.99,,,0.00,Acu-Link.com,2013-06-19 17:26:00,
2013-06-19 13:41:00,66.0,41.6,30.16,East,90,2.2,-999.0,41,-99.99,,,0.00,Acu-Link.com,2013-06-19 17:41:00,
2013-06-19 13:56:00,65.3,39.0,30.16,East,90,0.0,-999.0,38,-99.99,,,0.00,Acu-Link.com,2013-06-19 17:56:00,
2013-06-19 14:11:00,68.4,41.8,30.16,ESE,112,0.0,-999.0,38,-99.99,,,0.00,Acu-Link.com,2013-06-19 18:11:00,
2013-06-19 14:27:00,66.9,39.1,30.16,ENE,67,0.0,-999.0,36,-99.99,,,0.00,Acu-Link.com,2013-06-19 18:27:00,
2013-06-19 14:42:00,67.5,41.0,30.16,ENE,67,0.0,-999.0,38,-99.99,,,0.00,Acu-Link.com,2013-06-19 18:42:00,
2013-06-19 14:57:00,66.7,41.0,30.17,NE,45,0.0,-999.0,39,-99.99,,,0.00,Acu-Link.com,2013-06-19 18:57:00,
2013-06-19 15:12:00,66.4,44.4,30.17,SSW,202,0.0,-999.0,45,-99.99,,,0.00,Acu-Link.com,2013-06-19 19:12:00,
2013-06-19 15:27:00,64.9,45.3,30.16,North,0,0.0,-999.0,49,-99.99,,,0.00,Acu-Link.com,2013-06-19 19:27:00,
2013-06-19 15:43:00,65.5,41.8,30.16,NNE,22,0.0,-999.0,42,-99.99,,,0.00,Acu-Link.com,2013-06-19 19:43:00,
2013-06-19 15:58:00,66.6,40.2,30.16,WSW,247,0.0,-999.0,38,-99.99,,,0.00,Acu-Link.com,2013-06-19 19:58:00,
2013-06-19 16:13:00,67.6,41.8,30.15,SSW,202,1.1,-999.0,39,-99.99,,,0.00,Acu-Link.com,2013-06-19 20:13:00,
2013-06-19 16:28:00,67.6,41.1,30.15,WSW,247,0.0,-999.0,38,-99.99,,,0.00,Acu-Link.com,2013-06-19 20:28:00,
2013-06-19 16:44:00,67.3,40.8,30.15,South,180,0.0,-999.0,38,-99.99,,,0.00,Acu-Link.com,2013-06-19 20:44:00,
2013-06-19 16:59:00,66.9,43.1,30.15,SSW,202,0.0,-999.0,42,-99.99,,,0.00,Acu-Link.com,2013-06-19 20:59:00,
2013-06-19 17:14:00,65.7,42.6,30.15,SSE,157,0.0,-999.0,43,-99.99,,,0.00,Acu-Link.com,2013-06-19 21:14:00,
2013-06-19 17:29:00,64.8,42.3,30.15,North,0,0.0,-999.0,44,-99.99,,,0.00,Acu-Link.com,2013-06-19 21:29:00,
2013-06-19 17:45:00,64.2,43.6,30.15,North,0,0.0,-999.0,47,-99.99,,,0.00,Acu-Link.com,2013-06-19 21:45:00,
2013-06-19 18:00:00,64.4,45.4,30.15,NNE,22,0.0,-999.0,50,-99.99,,,0.00,Acu-Link.com,2013-06-19 22:00:00,
2013-06-19 18:15:00,64.6,45.5,30.15,ESE,112,0.0,-999.0,50,-99.99,,,0.00,Acu-Link.com,2013-06-19 22:15:00,
2013-06-19 18:30:00,64.8,46.2,30.15,North,0,0.0,-999.0,51,-99.99,,,0.00,Acu-Link.com,2013-06-19 22:30:00,
2013-06-19 18:46:00,63.9,45.4,30.15,North,0,0.0,-999.0,51,-99.99,,,0.00,Acu-Link.com,2013-06-19 22:46:00,
2013-06-19 19:01:00,63.3,44.4,30.15,North,0,0.0,-999.0,50,-99.99,,,0.00,Acu-Link.com,2013-06-19 23:01:00,
2013-06-19 19:16:00,62.8,44.9,30.15,North,0,0.0,-999.0,52,-99.99,,,0.00,Acu-Link.com,2013-06-19 23:16:00,
2013-06-19 19:31:00,62.1,44.2,30.16,North,0,0.0,-999.0,52,-99.99,,,0.00,Acu-Link.com,2013-06-19 23:31:00,
2013-06-19 19:47:00,61.5,43.2,30.16,North,0,0.0,-999.0,51,-99.99,,,0.00,Acu-Link.com,2013-06-19 23:47:00,
2013-06-19 20:02:00,61.0,43.2,30.16,North,0,0.0,-999.0,52,-99.99,,,0.00,Acu-Link.com,2013-06-20 00:02:00,
2013-06-19 20:17:00,60.3,43.1,30.17,North,0,0.0,-999.0,53,-99.99,,,0.00,Acu-Link.com,2013-06-20 00:17:00,
2013-06-19 20:32:00,59.5,42.9,30.16,North,0,0.0,-999.0,54,-99.99,,,0.00,Acu-Link.com,2013-06-20 00:32:00,
2013-06-19 20:47:00,58.6,43.0,30.17,North,0,0.0,-999.0,56,-99.99,,,0.00,Acu-Link.com,2013-06-20 00:47:00,
2013-06-19 21:03:00,57.9,42.8,30.18,North,0,0.0,-999.0,57,-99.99,,,0.00,Acu-Link.com,2013-06-20 01:03:00,
2013-06-19 21:18:00,57.2,42.6,30.18,North,0,0.0,-999.0,58,-99.99,,,0.00,Acu-Link.com,2013-06-20 01:18:00,
2013-06-19 21:33:00,56.3,43.4,30.19,North,0,0.0,-999.0,62,-99.99,,,0.00,Acu-Link.com,2013-06-20 01:33:00,
2013-06-19 22:00:00,55.0,44.7,30.19,North,0,0.0,-999.0,68,-99.99,,,0.00,Acu-Link.com,2013-06-20 02:00:00,
2013-06-19 22:15:00,54.5,44.2,30.21,North,0,0.0,-999.0,68,-99.99,,,0.00,Acu-Link.com,2013-06-20 02:15:00,
2013-06-19 22:30:00,53.8,46.7,30.20,North,0,0.0,-999.0,77,-99.99,,,0.00,Acu-Link.com,2013-06-20 02:30:00,
2013-06-19 22:45:00,53.1,46.0,30.21,North,0,0.0,-999.0,77,-99.99,,,0.00,Acu-Link.com,2013-06-20 02:45:00,
2013-06-19 23:00:00,52.3,48.3,30.21,North,0,0.0,-999.0,86,-99.99,,,0.00,Acu-Link.com,2013-06-20 03:00:00,
2013-06-19 23:16:00,51.4,50.3,30.21,North,0,0.0,-999.0,96,-99.99,,,0.00,Acu-Link.com,2013-06-20 03:16:00,
2013-06-19 23:31:00,50.9,49.2,30.22,North,0,0.0,-999.0,94,-99.99,,,0.00,Acu-Link.com,2013-06-20 03:31:00,
2013-06-19 23:46:00,50.7,46.7,30.22,North,0,0.0,-999.0,86,-99.99,,,0.00,Acu-Link.com,2013-06-20 03:46:00,